,,Stat6,,Stat2,,Stat8,,Stat9,,Stat10,,Wind1,,Wind1,
time,status,PA1M_AVG,status,PR1M_SUM,status,RH1M_AVG,status,SR1M_AVG,status,TA1M_AVG,status,W1dAve1m,status,W1sAve1m,
2008-04-20, 00:00:00,VALID,915.459,VALID,0,VALID,100,VALID,-0.0509425,VALID,18.5704,VALID,102,VALID,0,
2008-04-20, 00:01:00,VALID,915.448,VALID,0,VALID,100,VALID,-0.0509425,VALID,18.5512,VALID,136,VALID,0,
2008-04-20, 00:02:00,VALID,915.429,VALID,0,VALID,100,VALID,0,VALID,18.5412,VALID,128,VALID,0,
2008-04-20, 00:03:00,VALID,915.427,VALID,0,VALID,100,VALID,-0.0169808,VALID,18.5349,VALID,109,VALID,0.345954,
2008-04-20, 00:04:00,VALID,915.403,VALID,0,VALID,100,VALID,-0.0169808,VALID,18.5282,VALID,126,VALID,0.859561,
2008-04-20, 00:05:00,VALID,915.404,VALID,0,VALID,100,VALID,0,VALID,18.5217,VALID,119,VALID,0.808503,
2008-04-20, 00:06:00,VALID,915.403,VALID,0,VALID,100,VALID,0,VALID,18.5122,VALID,124,VALID,0.426599,
2008-04-20, 00:07:00,VALID,915.388,VALID,0,VALID,100,VALID,-0.0509425,VALID,18.4932,VALID,116,VALID,0.142361,
2008-04-20, 00:08:00,VALID,915.371,VALID,0,VALID,100,VALID,-0.0169808,VALID,18.4861,VALID,121,VALID,0.836319,
2008-04-20, 00:09:00,VALID,915.37,VALID,0,VALID,100,VALID,-0.0169808,VALID,18.4861,VALID,121,VALID,0.977325,
2008-04-20, 00:10:00,VALID,915.367,VALID,0,VALID,100,VALID,-0.0339617,VALID,18.4928,VALID,129,VALID,1.07496,
2008-04-20, 00:11:00,VALID,915.348,VALID,0,VALID,100,VALID,0,VALID,18.496,VALID,128,VALID,0.827237,
2008-04-20, 00:12:00,VALID,915.346,VALID,0,VALID,100,VALID,0,VALID,18.4993,VALID,137,VALID,1.0451,
2008-04-20, 00:13:00,VALID,915.325,VALID,0,VALID,100,VALID,0.0169808,VALID,18.5282,VALID,131,VALID,0.688616,
2008-04-20, 00:14:00,VALID,915.334,VALID,0,VALID,100,VALID,0,VALID,18.512,VALID,152,VALID,0.907703,
2008-04-20, 00:15:00,VALID,915.329,VALID,0,VALID,100,VALID,0,VALID,18.5315,VALID,143,VALID,0.447856,
2008-04-20, 00:16:00,VALID,915.332,VALID,0,VALID,100,VALID,0,VALID,18.5379,VALID,154,VALID,0.164608,
2008-04-20, 00:17:00,VALID,915.318,VALID,0,VALID,100,VALID,0,VALID,18.5477,VALID,159,VALID,0.89027,
2008-04-20, 00:18:00,VALID,915.309,VALID,0,VALID,100,VALID,0,VALID,18.5542,VALID,153,VALID,0.187153,
2008-04-20, 00:19:00,VALID,915.262,VALID,0,VALID,100,VALID,-0.0169808,VALID,18.5609,VALID,147,VALID,0.481179,
2008-04-20, 00:20:00,VALID,915.268,VALID,0,VALID,100,VALID,0,VALID,18.5933,VALID,130,VALID,1.04954,
2008-04-20, 00:21:00,VALID,915.258,VALID,0,VALID,100,VALID,-0.0169808,VALID,18.6385,VALID,129,VALID,1.2965,
2008-04-20, 00:22:00,VALID,915.241,VALID,0,VALID,100,VALID,-0.0339617,VALID,18.6839,VALID,119,VALID,0.842297,
2008-04-20, 00:23:00,VALID,915.218,VALID,0,VALID,100,VALID,-0.0169808,VALID,18.6939,VALID,125,VALID,0.963368,
2008-04-20, 00:24:00,VALID,915.211,VALID,0,VALID,100,VALID,-0.0339617,VALID,18.7131,VALID,123,VALID,1.07475,
2008-04-20, 00:25:00,VALID,915.166,VALID,0,VALID,100,VALID,0,VALID,18.7326,VALID,128,VALID,1.17078,
2008-04-20, 00:26:00,VALID,915.162,VALID,0,VALID,100,VALID,0,VALID,18.7421,VALID,127,VALID,1.12157,
2008-04-20, 00:27:00,VALID,915.142,VALID,0,VALID,100,VALID,0,VALID,18.752,VALID,121,VALID,1.10723,
2008-04-20, 00:28:00,VALID,915.133,VALID,0,VALID,100,VALID,-0.0169808,VALID,18.7328,VALID,126,VALID,0.648256,
2008-04-20, 00:29:00,VALID,915.126,VALID,0,VALID,100,VALID,-0.0509425,VALID,18.7031,VALID,123,VALID,0.989648,
2008-04-20, 00:30:00,VALID,915.129,VALID,0,VALID,100,VALID,0,VALID,18.7328,VALID,134,VALID,0.933966,
2008-04-20, 00:31:00,VALID,915.092,VALID,0,VALID,100,VALID,0,VALID,18.739,VALID,132,VALID,1.06795,
2008-04-20, 00:32:00,VALID,915.096,VALID,0,VALID,100,VALID,0,VALID,18.7161,VALID,118,VALID,0.934837,
2008-04-20, 00:33:00,VALID,915.066,VALID,0,VALID,100,VALID,-0.0169808,VALID,18.7066,VALID,117,VALID,1.01391,
2008-04-20, 00:34:00,VALID,915.061,VALID,0,VALID,100,VALID,0,VALID,18.7036,VALID,114,VALID,1.05022,
2008-04-20, 00:35:00,VALID,915.039,VALID,0,VALID,100,VALID,-0.0169808,VALID,18.7168,VALID,110,VALID,0.956577,
2008-04-20, 00:36:00,VALID,915.024,VALID,0,VALID,100,VALID,0,VALID,18.7203,VALID,120,VALID,1.05305,
2008-04-20, 00:37:00,VALID,915.001,VALID,0,VALID,100,VALID,-0.0169808,VALID,18.7395,VALID,127,VALID,1.09219,
2008-04-20, 00:38:00,VALID,915.003,VALID,0,VALID,100,VALID,-0.0169808,VALID,18.749,VALID,107,VALID,0.979725,
2008-04-20, 00:39:00,VALID,914.984,VALID,0,VALID,100,VALID,-0.0509425,VALID,18.7754,VALID,117,VALID,1.13427,
2008-04-20, 00:40:00,VALID,914.981,VALID,0,VALID,100,VALID,-0.0509425,VALID,18.8079,VALID,131,VALID,0.967862,
2008-04-20, 00:41:00,VALID,914.989,VALID,0,VALID,100,VALID,-0.0169808,VALID,18.8171,VALID,131,VALID,1.16109,
2008-04-20, 00:42:00,VALID,914.982,VALID,0,VALID,100,VALID,-0.0169808,VALID,18.8528,VALID,146,VALID,1.02572,
2008-04-20, 00:43:00,VALID,914.989,VALID,0,VALID,100,VALID,-0.0509425,VALID,18.873,VALID,125,VALID,0.990767,
2008-04-20, 00:44:00,VALID,914.957,VALID,0,VALID,100,VALID,-0.0169808,VALID,18.8728,VALID,113,VALID,1.28379,
2008-04-20, 00:45:00,VALID,914.953,VALID,0,VALID,100,VALID,-0.0339617,VALID,18.8498,VALID,114,VALID,1.04052,
2008-04-20, 00:46:00,VALID,914.939,VALID,0,VALID,100,VALID,-0.0339617,VALID,18.8331,VALID,113,VALID,1.00591,
2008-04-20, 00:47:00,VALID,914.924,VALID,0,VALID,100,VALID,-0.0339617,VALID,18.8303,VALID,107,VALID,0.837109,
2008-04-20, 00:48:00,VALID,914.913,VALID,0,VALID,100,VALID,-0.0509425,VALID,18.7947,VALID,102,VALID,0.834666,
2008-04-20, 00:49:00,VALID,914.895,VALID,0,VALID,100,VALID,-0.0339617,VALID,18.7947,VALID,110,VALID,0.770597,
2008-04-20, 00:50:00,VALID,914.889,VALID,0,VALID,100,VALID,-0.0509425,VALID,18.7949,VALID,109,VALID,0.838118,
2008-04-20, 00:51:00,VALID,914.88,VALID,0,VALID,100,VALID,-0.0339617,VALID,18.7919,VALID,115,VALID,0.700218,
2008-04-20, 00:52:00,VALID,914.866,VALID,0,VALID,100,VALID,-0.0509425,VALID,18.7787,VALID,115,VALID,1.02691,
2008-04-20, 00:53:00,VALID,914.855,VALID,0,VALID,100,VALID,-0.0339617,VALID,18.769,VALID,109,VALID,1.05305,
2008-04-20, 00:54:00,VALID,914.843,VALID,0,VALID,100,VALID,-0.0679233,VALID,18.7727,VALID,113,VALID,1.14244,
2008-04-20, 00:55:00,VALID,914.837,VALID,0,VALID,100,VALID,-0.0849042,VALID,18.7662,VALID,107,VALID,1.03216,
2008-04-20, 00:56:00,VALID,914.839,VALID,0,VALID,100,VALID,-0.0509425,VALID,18.7632,VALID,107,VALID,0.84096,
2008-04-20, 00:57:00,VALID,914.821,VALID,0,VALID,100,VALID,-0.101885,VALID,18.7662,VALID,135,VALID,1.00182,
2008-04-20, 00:58:00,VALID,914.8,VALID,0,VALID,100,VALID,-0.101885,VALID,18.7794,VALID,137,VALID,0.247869,
2008-04-20, 00:59:00,VALID,914.793,VALID,0,VALID,100,VALID,-0.101885,VALID,18.7727,VALID,140,VALID,0.648264,
2008-04-20, 01:00:00,VALID,914.768,VALID,0,VALID,100,VALID,-0.0679233,VALID,18.7657,VALID,139,VALID,0,
2008-04-20, 01:01:00,VALID,914.764,VALID,0,VALID,100,VALID,-0.0679233,VALID,18.7692,VALID,137,VALID,0,
2008-04-20, 01:02:00,VALID,914.748,VALID,0,VALID,100,VALID,-0.0339617,VALID,18.7592,VALID,141,VALID,0.332386,
2008-04-20, 01:03:00,VALID,914.737,VALID,0,VALID,100,VALID,-0.0509425,VALID,18.7664,VALID,154,VALID,0.653773,
2008-04-20, 01:04:00,VALID,914.733,VALID,0,VALID,100,VALID,-0.0169808,VALID,18.7622,VALID,172,VALID,0.0890262,
2008-04-20, 01:05:00,VALID,914.729,VALID,0,VALID,100,VALID,0.0339617,VALID,18.7717,VALID,174,VALID,0.0631944,
2008-04-20, 01:06:00,VALID,914.728,VALID,0,VALID,100,VALID,0.0339617,VALID,18.7675,VALID,179,VALID,0.0636433,
2008-04-20, 01:07:00,VALID,914.727,VALID,0,VALID,100,VALID,0.0849042,VALID,18.7476,VALID,179,VALID,0.0117188,
2008-04-20, 01:08:00,VALID,914.742,VALID,0,VALID,100,VALID,0.0679233,VALID,18.7448,VALID,179,VALID,0.0501953,
2008-04-20, 01:09:00,VALID,914.745,VALID,0,VALID,100,VALID,0.0339617,VALID,18.7029,VALID,179,VALID,0,
2008-04-20, 01:10:00,VALID,914.738,VALID,0,VALID,100,VALID,0.0849042,VALID,18.664,VALID,179,VALID,0,
2008-04-20, 01:11:00,VALID,914.73,VALID,0,VALID,100,VALID,0.0509425,VALID,18.6181,VALID,179,VALID,0,
2008-04-20, 01:12:00,VALID,914.723,VALID,0,VALID,100,VALID,0.0849042,VALID,18.5991,VALID,179,VALID,0,
2008-04-20, 01:13:00,VALID,914.713,VALID,0,VALID,100,VALID,0.0849042,VALID,18.5926,VALID,179,VALID,0,
2008-04-20, 01:14:00,VALID,914.705,VALID,0,VALID,100,VALID,0.0509425,VALID,18.5787,VALID,179,VALID,0,
2008-04-20, 01:15:00,VALID,914.692,VALID,0,VALID,100,VALID,0.0849042,VALID,18.5852,VALID,179,VALID,0,
2008-04-20, 01:16:00,VALID,914.693,VALID,0,VALID,100,VALID,0.0849042,VALID,18.5792,VALID,179,VALID,0,
2008-04-20, 01:17:00,VALID,914.665,VALID,0,VALID,100,VALID,0.0509425,VALID,18.5859,VALID,179,VALID,0,
2008-04-20, 01:18:00,VALID,914.661,VALID,0,VALID,100,VALID,0.0679233,VALID,18.5792,VALID,179,VALID,0,
2008-04-20, 01:19:00,VALID,914.675,VALID,0,VALID,100,VALID,0.0849042,VALID,18.5794,VALID,179,VALID,0,
2008-04-20, 01:20:00,VALID,914.666,VALID,0,VALID,100,VALID,0,VALID,18.5671,VALID,179,VALID,0,
2008-04-20, 01:21:00,VALID,914.672,VALID,0,VALID,100,VALID,-0.0509425,VALID,18.5614,VALID,179,VALID,0,
2008-04-20, 01:22:00,VALID,914.661,VALID,0,VALID,100,VALID,-0.0679233,VALID,18.5349,VALID,179,VALID,0,
2008-04-20, 01:23:00,VALID,914.65,VALID,0,VALID,100,VALID,-0.0169808,VALID,18.5319,VALID,176,VALID,0,
2008-04-20, 01:24:00,VALID,914.64,VALID,0,VALID,100,VALID,-0.0169808,VALID,18.5088,VALID,154,VALID,0,
2008-04-20, 01:25:00,VALID,914.628,VALID,0,VALID,100,VALID,-0.0509425,VALID,18.5055,VALID,154,VALID,0.139323,
2008-04-20, 01:26:00,VALID,914.607,VALID,0,VALID,100,VALID,-0.0509425,VALID,18.5287,VALID,150,VALID,0.74442,
2008-04-20, 01:27:00,VALID,914.599,VALID,0,VALID,100,VALID,-0.0169808,VALID,18.5287,VALID,147,VALID,0.579167,
2008-04-20, 01:28:00,VALID,914.576,VALID,0,VALID,100,VALID,-0.0849042,VALID,18.5294,VALID,147,VALID,0.524709,
2008-04-20, 01:29:00,VALID,914.57,VALID,0,VALID,100,VALID,-0.0849042,VALID,18.506,VALID,133,VALID,0.599023,
2008-04-20, 01:30:00,VALID,914.544,VALID,0,VALID,100,VALID,-0.0339617,VALID,18.4958,VALID,127,VALID,0.695871,
2008-04-20, 01:31:00,VALID,914.524,VALID,0,VALID,100,VALID,-0.0509425,VALID,18.4995,VALID,122,VALID,0.742914,
2008-04-20, 01:32:00,VALID,914.502,VALID,0,VALID,100,VALID,-0.0509425,VALID,18.5194,VALID,120,VALID,0.770198,
2008-04-20, 01:33:00,VALID,914.492,VALID,0,VALID,100,VALID,-0.0849042,VALID,18.5419,VALID,120,VALID,0.825581,
2008-04-20, 01:34:00,VALID,914.471,VALID,0,VALID,100,VALID,-0.0339617,VALID,18.5648,VALID,122,VALID,0.440044,
2008-04-20, 01:35:00,VALID,914.468,VALID,0,VALID,100,VALID,-0.0339617,VALID,18.5609,VALID,130,VALID,0.77611,
2008-04-20, 01:36:00,VALID,914.443,VALID,0,VALID,100,VALID,-0.0509425,VALID,18.6,VALID,133,VALID,0.835938,
2008-04-20, 01:37:00,VALID,914.429,VALID,0,VALID,100,VALID,-0.0509425,VALID,18.6197,VALID,132,VALID,0.727307,
2008-04-20, 01:38:00,VALID,914.416,VALID,0,VALID,100,VALID,-0.0339617,VALID,18.6265,VALID,131,VALID,0.749619,
2008-04-20, 01:39:00,VALID,914.412,VALID,0,VALID,100,VALID,-0.0169808,VALID,18.6197,VALID,128,VALID,0.663021,
2008-04-20, 01:40:00,VALID,914.409,VALID,0,VALID,100,VALID,-0.0679233,VALID,18.613,VALID,128,VALID,0.648633,
2008-04-20, 01:41:00,VALID,914.393,VALID,0,VALID,100,VALID,-0.0679233,VALID,18.623,VALID,131,VALID,0.700838,
2008-04-20, 01:42:00,VALID,914.38,VALID,0,VALID,100,VALID,-0.0509425,VALID,18.6137,VALID,124,VALID,0.427557,
2008-04-20, 01:43:00,VALID,914.362,VALID,0,VALID,100,VALID,-0.0849042,VALID,18.617,VALID,118,VALID,0,
2008-04-20, 01:44:00,VALID,914.337,VALID,0,VALID,100,VALID,-0.0679233,VALID,18.6237,VALID,123,VALID,0,
2008-04-20, 01:45:00,VALID,914.314,VALID,0,VALID,100,VALID,-0.0509425,VALID,18.623,VALID,128,VALID,0.117932,
2008-04-20, 01:46:00,VALID,914.288,VALID,0,VALID,100,VALID,-0.0679233,VALID,18.6394,VALID,127,VALID,0.540698,
2008-04-20, 01:47:00,VALID,914.267,VALID,0,VALID,100,VALID,-0.0849042,VALID,18.6362,VALID,124,VALID,0.405903,
2008-04-20, 01:48:00,VALID,914.245,VALID,0,VALID,100,VALID,-0.0849042,VALID,18.6195,VALID,123,VALID,0,
2008-04-20, 01:49:00,VALID,914.234,VALID,0,VALID,100,VALID,-0.0679233,VALID,18.6429,VALID,124,VALID,0,
2008-04-20, 01:50:00,VALID,914.215,VALID,0,VALID,100,VALID,-0.0849042,VALID,18.6654,VALID,126,VALID,0,
2008-04-20, 01:51:00,VALID,914.204,VALID,0,VALID,100,VALID,-0.0679233,VALID,18.6786,VALID,127,VALID,0,
2008-04-20, 01:52:00,VALID,914.2,VALID,0,VALID,100,VALID,-0.0679233,VALID,18.6913,VALID,133,VALID,0,
2008-04-20, 01:53:00,VALID,914.195,VALID,0,VALID,100,VALID,-0.0339617,VALID,18.7078,VALID,128,VALID,0,
2008-04-20, 01:54:00,VALID,914.188,VALID,0,VALID,100,VALID,-0.0679233,VALID,18.7208,VALID,130,VALID,0,
2008-04-20, 01:55:00,VALID,914.185,VALID,0,VALID,100,VALID,-0.0169808,VALID,18.7368,VALID,146,VALID,0.224015,
2008-04-20, 01:56:00,VALID,914.181,VALID,0,VALID,100,VALID,-0.0339617,VALID,18.7495,VALID,161,VALID,0.939732,
2008-04-20, 01:57:00,VALID,914.188,VALID,0,VALID,100,VALID,-0.0849042,VALID,18.7629,VALID,164,VALID,0.729936,
2008-04-20, 01:58:00,VALID,914.188,VALID,0,VALID,100,VALID,-0.0509425,VALID,18.7595,VALID,175,VALID,0.680035,
2008-04-20, 01:59:00,VALID,914.187,VALID,0,VALID,100,VALID,-0.0849042,VALID,18.7694,VALID,175,VALID,0.712843,
2008-04-20, 02:00:00,VALID,914.183,VALID,0,VALID,100,VALID,-0.0339617,VALID,18.7659,VALID,175,VALID,0.537919,
2008-04-20, 02:01:00,VALID,914.159,VALID,0,VALID,100,VALID,-0.0339617,VALID,18.7592,VALID,178,VALID,0.135764,
2008-04-20, 02:02:00,VALID,914.151,VALID,0,VALID,100,VALID,-0.0339617,VALID,18.7627,VALID,173,VALID,0.876562,
2008-04-20, 02:03:00,VALID,914.13,VALID,0,VALID,100,VALID,-0.0169808,VALID,18.7555,VALID,174,VALID,0.638808,
2008-04-20, 02:04:00,VALID,914.114,VALID,0,VALID,100,VALID,0,VALID,18.7455,VALID,180,VALID,0.476563,
2008-04-20, 02:05:00,VALID,914.097,VALID,0,VALID,100,VALID,-0.0169808,VALID,18.7455,VALID,177,VALID,0.579613,
2008-04-20, 02:06:00,VALID,914.091,VALID,0,VALID,100,VALID,-0.0509425,VALID,18.7296,VALID,170,VALID,0.881324,
2008-04-20, 02:07:00,VALID,914.066,VALID,0,VALID,100,VALID,-0.0339617,VALID,18.7233,VALID,168,VALID,0.758956,
2008-04-20, 02:08:00,VALID,914.063,VALID,0,VALID,100,VALID,-0.101885,VALID,18.7041,VALID,159,VALID,0.962028,
2008-04-20, 02:09:00,VALID,914.039,VALID,0,VALID,100,VALID,-0.0509425,VALID,18.6744,VALID,155,VALID,0.783913,
2008-04-20, 02:10:00,VALID,914.04,VALID,0,VALID,100,VALID,-0.0679233,VALID,18.6587,VALID,156,VALID,1.00449,
2008-04-20, 02:11:00,VALID,914.027,VALID,0,VALID,100,VALID,-0.0509425,VALID,18.6485,VALID,140,VALID,0.938672,
2008-04-20, 02:12:00,VALID,914.012,VALID,0,VALID,100,VALID,-0.0339617,VALID,18.6482,VALID,137,VALID,0.617001,
2008-04-20, 02:13:00,VALID,913.999,VALID,0,VALID,100,VALID,-0.0169808,VALID,18.6554,VALID,147,VALID,0.865007,
2008-04-20, 02:14:00,VALID,913.982,VALID,0,VALID,100,VALID,-0.0339617,VALID,18.6587,VALID,142,VALID,0.742374,
2008-04-20, 02:15:00,VALID,913.964,VALID,0,VALID,100,VALID,-0.0169808,VALID,18.6519,VALID,151,VALID,0.877046,
2008-04-20, 02:16:00,VALID,913.969,VALID,0,VALID,100,VALID,-0.0849042,VALID,18.6684,VALID,161,VALID,0.030692,
2008-04-20, 02:17:00,VALID,913.96,VALID,0,VALID,100,VALID,-0.0339617,VALID,18.6587,VALID,155,VALID,0.13872,
2008-04-20, 02:18:00,VALID,913.949,VALID,0,VALID,100,VALID,-0.0679233,VALID,18.6614,VALID,158,VALID,0.54652,
2008-04-20, 02:19:00,VALID,913.949,VALID,0,VALID,100,VALID,-0.0849042,VALID,18.6689,VALID,150,VALID,0.608356,
2008-04-20, 02:20:00,VALID,913.935,VALID,0,VALID,100,VALID,-0.0679233,VALID,18.6455,VALID,131,VALID,0.864329,
2008-04-20, 02:21:00,VALID,913.927,VALID,0,VALID,100,VALID,-0.0169808,VALID,18.6193,VALID,150,VALID,0.831659,
2008-04-20, 02:22:00,VALID,913.92,VALID,0,VALID,100,VALID,-0.0509425,VALID,18.6105,VALID,140,VALID,0.917882,
2008-04-20, 02:23:00,VALID,913.93,VALID,0,VALID,100,VALID,-0.0509425,VALID,18.5611,VALID,132,VALID,1.17134,
2008-04-20, 02:24:00,VALID,913.942,VALID,0,VALID,100,VALID,-0.101885,VALID,18.5389,VALID,118,VALID,0.87173,
2008-04-20, 02:25:00,VALID,913.947,VALID,0,VALID,100,VALID,-0.0679233,VALID,18.5192,VALID,127,VALID,0.379439,
2008-04-20, 02:26:00,VALID,913.957,VALID,0,VALID,100,VALID,-0.0509425,VALID,18.5194,VALID,130,VALID,0.705128,
2008-04-20, 02:27:00,VALID,913.964,VALID,0,VALID,100,VALID,-0.0509425,VALID,18.4965,VALID,133,VALID,0.938262,
2008-04-20, 02:28:00,VALID,913.956,VALID,0,VALID,100,VALID,-0.0509425,VALID,18.4858,VALID,141,VALID,1.17151,
2008-04-20, 02:29:00,VALID,913.949,VALID,0,VALID,100,VALID,-0.0849042,VALID,18.5155,VALID,144,VALID,0.823171,
2008-04-20, 02:30:00,VALID,913.965,VALID,0,VALID,100,VALID,-0.0849042,VALID,18.5319,VALID,153,VALID,0.712936,
2008-04-20, 02:31:00,VALID,913.955,VALID,0,VALID,100,VALID,-0.0849042,VALID,18.5588,VALID,155,VALID,0.716844,
2008-04-20, 02:32:00,VALID,913.942,VALID,0,VALID,100,VALID,-0.0509425,VALID,18.5618,VALID,153,VALID,0.936498,
2008-04-20, 02:33:00,VALID,913.937,VALID,0,VALID,100,VALID,-0.0679233,VALID,18.5486,VALID,160,VALID,0.80692,
2008-04-20, 02:34:00,VALID,913.924,VALID,0,VALID,100,VALID,-0.0849042,VALID,18.5092,VALID,151,VALID,0.719131,
2008-04-20, 02:35:00,VALID,913.904,VALID,0,VALID,100,VALID,-0.0339617,VALID,18.4863,VALID,142,VALID,0.761133,
2008-04-20, 02:36:00,VALID,913.893,VALID,0,VALID,100,VALID,-0.0339617,VALID,18.4536,VALID,132,VALID,1.07376,
2008-04-20, 02:37:00,VALID,913.893,VALID,0,VALID,100,VALID,-0.0509425,VALID,18.4312,VALID,130,VALID,1.21711,
2008-04-20, 02:38:00,VALID,913.886,VALID,0,VALID,100,VALID,-0.0679233,VALID,18.4219,VALID,128,VALID,0.746548,
2008-04-20, 02:39:00,VALID,913.887,VALID,0,VALID,100,VALID,-0.0679233,VALID,18.405,VALID,126,VALID,0.771662,
2008-04-20, 02:40:00,VALID,913.881,VALID,0,VALID,100,VALID,-0.0509425,VALID,18.3955,VALID,107,VALID,0.48819,
2008-04-20, 02:41:00,VALID,913.881,VALID,0,VALID,100,VALID,-0.0509425,VALID,18.4087,VALID,119,VALID,1.09535,
2008-04-20, 02:42:00,VALID,913.875,VALID,0,VALID,100,VALID,-0.0679233,VALID,18.4249,VALID,121,VALID,0.979911,
2008-04-20, 02:43:00,VALID,913.869,VALID,0,VALID,100,VALID,-0.0679233,VALID,18.4281,VALID,121,VALID,1.09002,
2008-04-20, 02:44:00,VALID,913.858,VALID,0,VALID,100,VALID,-0.0339617,VALID,18.4177,VALID,119,VALID,1.05505,
2008-04-20, 02:45:00,VALID,913.84,VALID,0,VALID,100,VALID,-0.0339617,VALID,18.4379,VALID,123,VALID,0.799237,
2008-04-20, 02:46:00,VALID,913.823,VALID,0,VALID,100,VALID,-0.0679233,VALID,18.4471,VALID,127,VALID,1.16946,
2008-04-20, 02:47:00,VALID,913.819,VALID,0,VALID,100,VALID,-0.0679233,VALID,18.4865,VALID,123,VALID,0.904251,
2008-04-20, 02:48:00,VALID,913.816,VALID,0,VALID,100,VALID,0,VALID,18.4893,VALID,137,VALID,1.22049,
2008-04-20, 02:49:00,VALID,913.801,VALID,0,VALID,100,VALID,0,VALID,18.4828,VALID,138,VALID,0.792969,
2008-04-20, 02:50:00,VALID,913.788,VALID,0,VALID,100,VALID,-0.0339617,VALID,18.483,VALID,138,VALID,0.947599,
2008-04-20, 02:51:00,VALID,913.781,VALID,0,VALID,100,VALID,-0.0339617,VALID,18.4636,VALID,130,VALID,0.966974,
2008-04-20, 02:52:00,VALID,913.764,VALID,0,VALID,100,VALID,-0.0509425,VALID,18.4437,VALID,126,VALID,0.66061,
2008-04-20, 02:53:00,VALID,913.744,VALID,0,VALID,100,VALID,-0.0339617,VALID,18.4471,VALID,121,VALID,0.888086,
2008-04-20, 02:54:00,VALID,913.732,VALID,0,VALID,100,VALID,-0.0509425,VALID,18.4506,VALID,134,VALID,1.18768,
2008-04-20, 02:55:00,VALID,913.714,VALID,0,VALID,100,VALID,-0.0169808,VALID,18.4696,VALID,137,VALID,1.49325,
2008-04-20, 02:56:00,VALID,913.7,VALID,0,VALID,100,VALID,-0.0169808,VALID,18.5155,VALID,134,VALID,1.30487,
2008-04-20, 02:57:00,VALID,913.674,VALID,0,VALID,100,VALID,-0.0339617,VALID,18.5185,VALID,127,VALID,1.20182,
2008-04-20, 02:58:00,VALID,913.649,VALID,0,VALID,100,VALID,-0.0169808,VALID,18.5215,VALID,132,VALID,1.46185,
2008-04-20, 02:59:00,VALID,913.631,VALID,0,VALID,100,VALID,0,VALID,18.5285,VALID,128,VALID,1.21322,
2008-04-20, 03:00:00,VALID,913.621,VALID,0,VALID,100,VALID,-0.0169808,VALID,18.5053,VALID,133,VALID,1.38281,
2008-04-20, 03:01:00,VALID,913.604,VALID,0,VALID,100,VALID,-0.0339617,VALID,18.4923,VALID,139,VALID,1.07994,
2008-04-20, 03:02:00,VALID,913.591,VALID,0,VALID,100,VALID,-0.0339617,VALID,18.4893,VALID,138,VALID,1.29324,
2008-04-20, 03:03:00,VALID,913.586,VALID,0,VALID,100,VALID,-0.0339617,VALID,18.4796,VALID,128,VALID,1.15123,
2008-04-20, 03:04:00,VALID,913.581,VALID,0,VALID,100,VALID,-0.0509425,VALID,18.4828,VALID,131,VALID,1.08289,
2008-04-20, 03:05:00,VALID,913.582,VALID,0,VALID,100,VALID,-0.0339617,VALID,18.4664,VALID,136,VALID,1.02083,
2008-04-20, 03:06:00,VALID,913.568,VALID,0,VALID,100,VALID,-0.0169808,VALID,18.4698,VALID,136,VALID,1.0845,
2008-04-20, 03:07:00,VALID,913.59,VALID,0,VALID,100,VALID,-0.0169808,VALID,18.4763,VALID,144,VALID,0.758743,
2008-04-20, 03:08:00,VALID,913.588,VALID,0,VALID,100,VALID,-0.0339617,VALID,18.4694,VALID,155,VALID,0.604167,
2008-04-20, 03:09:00,VALID,913.591,VALID,0,VALID,100,VALID,-0.0339617,VALID,18.4599,VALID,136,VALID,0.617188,
2008-04-20, 03:10:00,VALID,913.614,VALID,0,VALID,100,VALID,-0.0169808,VALID,18.4534,VALID,130,VALID,0.12407,
2008-04-20, 03:11:00,VALID,913.623,VALID,0,VALID,100,VALID,-0.0169808,VALID,18.4077,VALID,130,VALID,0.162538,
2008-04-20, 03:12:00,VALID,913.626,VALID,0,VALID,100,VALID,-0.0169808,VALID,18.4179,VALID,128,VALID,0.074314,
2008-04-20, 03:13:00,VALID,913.611,VALID,0,VALID,100,VALID,-0.0169808,VALID,18.3952,VALID,136,VALID,0.061942,
2008-04-20, 03:14:00,VALID,913.611,VALID,0,VALID,100,VALID,-0.0169808,VALID,18.3823,VALID,148,VALID,0,
2008-04-20, 03:15:00,VALID,913.62,VALID,0,VALID,100,VALID,-0.0509425,VALID,18.373,VALID,154,VALID,0.513579,
2008-04-20, 03:16:00,VALID,913.619,VALID,0,VALID,100,VALID,0,VALID,18.3693,VALID,147,VALID,0,
2008-04-20, 03:17:00,VALID,913.639,VALID,0,VALID,100,VALID,-0.0509425,VALID,18.3825,VALID,147,VALID,0.466933,
2008-04-20, 03:18:00,VALID,913.643,VALID,0,VALID,100,VALID,0,VALID,18.3987,VALID,148,VALID,0.193216,
2008-04-20, 03:19:00,VALID,913.664,VALID,0,VALID,100,VALID,-0.0509425,VALID,18.3987,VALID,148,VALID,0.160938,
2008-04-20, 03:20:00,VALID,913.672,VALID,0,VALID,100,VALID,-0.0339617,VALID,18.3957,VALID,147,VALID,0.417436,
2008-04-20, 03:21:00,VALID,913.697,VALID,0,VALID,100,VALID,-0.0339617,VALID,18.3955,VALID,148,VALID,0.542969,
2008-04-20, 03:22:00,VALID,913.693,VALID,0,VALID,100,VALID,0,VALID,18.4277,VALID,139,VALID,0.696403,
2008-04-20, 03:23:00,VALID,913.704,VALID,0,VALID,100,VALID,-0.0169808,VALID,18.4274,VALID,140,VALID,0.384055,
2008-04-20, 03:24:00,VALID,913.699,VALID,0,VALID,100,VALID,0,VALID,18.4826,VALID,138,VALID,0.932664,
2008-04-20, 03:25:00,VALID,913.704,VALID,0,VALID,100,VALID,0,VALID,18.4858,VALID,137,VALID,0.305246,
2008-04-20, 03:26:00,VALID,913.709,VALID,0,VALID,100,VALID,-0.0169808,VALID,18.4536,VALID,137,VALID,0.666493,
2008-04-20, 03:27:00,VALID,913.727,VALID,0,VALID,100,VALID,-0.0169808,VALID,18.4471,VALID,134,VALID,0.728423,
2008-04-20, 03:28:00,VALID,913.731,VALID,0,VALID,100,VALID,-0.0169808,VALID,18.4634,VALID,134,VALID,0.29707,
2008-04-20, 03:29:00,VALID,913.725,VALID,0,VALID,100,VALID,-0.0169808,VALID,18.4439,VALID,134,VALID,0,
2008-04-20, 03:30:00,VALID,913.737,VALID,0,VALID,100,VALID,0,VALID,18.4045,VALID,134,VALID,0,
2008-04-20, 03:31:00,VALID,913.736,VALID,0,VALID,100,VALID,0,VALID,18.392,VALID,134,VALID,0.178354,
2008-04-20, 03:32:00,VALID,913.725,VALID,0,VALID,100,VALID,-0.0169808,VALID,18.3661,VALID,134,VALID,0.119665,
2008-04-20, 03:33:00,VALID,913.718,VALID,0,VALID,100,VALID,0,VALID,18.3174,VALID,132,VALID,0,
2008-04-20, 03:34:00,VALID,913.719,VALID,0,VALID,100,VALID,-0.0339617,VALID,18.2623,VALID,129,VALID,0,
2008-04-20, 03:35:00,VALID,913.723,VALID,0,VALID,100,VALID,-0.0339617,VALID,18.2396,VALID,129,VALID,0,
2008-04-20, 03:36:00,VALID,913.725,VALID,0,VALID,100,VALID,-0.0339617,VALID,18.256,VALID,129,VALID,0,
2008-04-20, 03:37:00,VALID,913.729,VALID,0,VALID,100,VALID,-0.0339617,VALID,18.2171,VALID,129,VALID,0,
2008-04-20, 03:38:00,VALID,913.747,VALID,0,VALID,100,VALID,-0.0169808,VALID,18.1029,VALID,129,VALID,0,
2008-04-20, 03:39:00,VALID,913.758,VALID,0,VALID,100,VALID,0,VALID,18.0091,VALID,126,VALID,0,
2008-04-20, 03:40:00,VALID,913.751,VALID,0,VALID,100,VALID,0,VALID,18.016,VALID,93,VALID,0,